Weather in Novoekonomichne

Ukraine / Donetsk Region     48°19′40″N   37°19′55″E
temp.,
°C
wind,
m/s
gust,
m/s
humid.,
%
clouds,
%
prec.,
mm/h
press.,
hPa
HPBL,
m
12 april, mon
mon1200:00+10ne51076100 0.0 1021781
03:00+9ne4889100 0.0 1021300
06:00+7ne3696100 0.1 1020189
09:00+11ene3480100 0.1 1020382
12:00+14sse2271100 0.4 1020692
15:00+15ssw226796 0.4 1020782
18:00+12sse4682100 0.1 1021338
21:00+11sse2485100 0.2 1022164
13 april, tue
tue1300:00+10ssw2485100 0.0 1022174
03:00+9sw2386100 0.0 1022150
06:00+9w1185100 0.1 102258
09:00+9wnw1283100 0.1 1022132
12:00+10wsw2277100 0.0 1022385
15:00+11sw2274100 0.0 1022401
18:00+10s2277100 0.1 1021133
21:00+10se3584100 0.2 1021166
14 april, wed
wed1400:00+9s2380100 0.0 102098
03:00+9s237747 0.1 102078
06:00+7sw228763 0.0 101969
09:00+11ssw226917 0.0 1019474
12:00+14s335783 0.0 10181332
15:00+14s2253100 0.1 10171247
18:00+14sse235485 0.0 1017764
21:00+11sse126155 0.0 101711
15 april, thu
thu1500:00+8wsw34795 0.0 101766
03:00+7ssw22851 0.0 101713
06:00+6ssw228166 0.0 101619
09:00+12ssw34534 0.0 1016399
12:00+16s454664 0.0 10151469
15:00+17ssw5644100 0.0 10142095
18:00+14sw476250 0.3 1014671
21:00+10s378192 0.3 1015199
16 april, fri
fri1600:00+10sw3684100 0.0 1015332
03:00+9sw249490 0.1 1015122
06:00+7wsw229373 0.0 101537
09:00+11sw117080 0.0 1016522
12:00+14ssw4454100 0.0 10151540
15:00+14s4450100 0.1 10151693
18:00+10sse3479100 1.1 1016254
21:00+9se2178100 3.0 1017108